This is the latest recevied weather packets stored in our database for station/object SQ7IQO. If no packets are shown the sender has not sent any weather packets the latest 10 day(s).
| Time | Temp. | Humidity | Pressure | Rain* | Wind** | Luminosity | Snow |
|---|---|---|---|---|---|---|---|
| 1787990021 | 16.11° C | 97% | 1014.2 hPa | 86.87 mm | 1.34 m/s, ° | - | - |
| 1787989961 | 16.11° C | 97% | 1014.2 hPa | 86.87 mm | 1.79 m/s, ° | - | - |
| 1787989901 | 16.11° C | 97% | 1242.8 hPa | 86.87 mm | 2.24 m/s, ° | - | - |
| 1787989841 | 16.11° C | 97% | 1014.2 hPa | 86.87 mm | 1.79 m/s, ° | - | - |
| 1787989781 | 16.67° C | 97% | 1014.2 hPa | 86.87 mm | 1.79 m/s, ° | - | - |
| 1787989721 | 16.11° C | 97% | 1014 hPa | 108.97 mm | 1.34 m/s, ° | - | - |
| 1787989661 | 16.67° C | 97% | 1014 hPa | 108.97 mm | 0.89 m/s, ° | - | - |
| 1787989601 | 16.11° C | 96% | 1014.2 hPa | 108.97 mm | 0.89 m/s, ° | - | - |
| 1787989541 | 16.67° C | 97% | 1014 hPa | 108.97 mm | 1.79 m/s, ° | - | - |
| 1787989481 | 16.67° C | 97% | 1013.9 hPa | 108.97 mm | 1.34 m/s, ° | - | - |
| 1787989421 | 16.67° C | 97% | 1014 hPa | 108.97 mm | 0.45 m/s, ° | - | - |
| 1787989361 | 16.67° C | 97% | 1013.9 hPa | 108.97 mm | 1.34 m/s, ° | - | - |
| 1787989301 | 16.67° C | 97% | - | 108.97 mm | 0.89 m/s, ° | - | - |
| 1787989241 | 16.67° C | 97% | 1013.9 hPa | 108.97 mm | 1.34 m/s, ° | - | - |
| 1787989181 | 16.67° C | 97% | 1013.9 hPa | 108.97 mm | 1.34 m/s, ° | - | - |
| 1787989121 | 16.67° C | 97% | 1013.8 hPa | 108.97 mm | 0.45 m/s, ° | - | - |
| 1787989061 | 16.67° C | 97% | 1013.8 hPa | 108.97 mm | 0.45 m/s, ° | - | - |
| 1787989001 | 16.67° C | 97% | 1013.8 hPa | 108.97 mm | 0.89 m/s, ° | - | - |
| 1787988941 | 16.67° C | 97% | 1013.7 hPa | 108.97 mm | 1.34 m/s, ° | - | - |
| 1787988881 | 16.67° C | 97% | 1045.5 hPa | 108.97 mm | 1.34 m/s, ° | - | - |
| 1787988821 | 16.67° C | 97% | - | 108.97 mm | 1.34 m/s, ° | - | - |
| 1787988761 | 16.67° C | 97% | 1015.5 hPa | 108.97 mm | 1.79 m/s, ° | - | - |
| 1787988701 | 16.67° C | 97% | 1013.7 hPa | 108.97 mm | 0.89 m/s, ° | - | - |
| 1787988641 | 16.67° C | 97% | 1013.7 hPa | 108.97 mm | 1.79 m/s, ° | - | - |
| 1787988581 | 16.67° C | 97% | 1009.8 hPa | 108.97 mm | 0.89 m/s, ° | - | - |
* Rain latest hour (hover to see other rain measurements)
** Current wind speed in m/s (hover to see current wind gust speed)